Regional Weather Roundup
Issued by NWS

Home | Current Version | Previous Version | Graphics & Text | Print | Product List | Glossary On
Versions: 1 2 3 4 5 6 7 8 9 10 11 12 13 14 15 16 17 18 19 20 21 22 23 24 25 26 27 28 29 30 31 32 33 34 35 36 37 38 39 40 41 42 43 44 45 46 47 48 49 50
213
ASUS43 KMKX 240721
RWRWI

WISCONSIN REGIONAL WEATHER ROUNDUP
NATIONAL WEATHER SERVICE MILWAUKEE/SULLIVAN WI
200 AM CDT MON APR 24 2017

NOTE: "FAIR" INDICATES FEW OR NO CLOUDS BELOW 12,000 FEET WITH NO
SIGNIFICANT WEATHER AND/OR OBSTRUCTIONS TO VISIBILITY.

WIZ001-002-006>008-014>016-023>028-240800-
NORTHWEST WISCONSIN

CITY           SKY/WX    TMP DP  RH WIND       PRES   REMARKS
SUPERIOR ARPT  CLOUDY    35  28  75 E20G29    30.02F WCI  24
ASHLAND        CLOUDY    35  27  72 NE14      30.04F WCI  26
HAYWARD        CLOUDY    36  29  75 NE7       29.96F WCI  30
SIREN          CLOUDY    38  32  78 NE7       29.93S WCI  33
CUMBERLAND     CLOUDY    41  36  81 SE9       29.91F
RICE LAKE      CLOUDY    45  39  79 E15       29.94S
CHETEK         CLOUDY    44  39  82 SE13G18   29.94S
LADYSMITH      CLOUDY    41  34  75 SE14      29.98S
EAU CLAIRE     PTCLDY    46  40  79 E14       29.94R
MENOMONIE      PTCLDY    49  43  78 E10       29.92S
NEW RICHMOND   CLOUDY    45  38  76 E7        29.89F
OSCEOLA        MOCLDY    44  38  78 E8        29.91F
$$

WIZ003>005-009-010-017-018-240800-
NORTH CENTRAL WISCONSIN

CITY           SKY/WX    TMP DP  RH WIND       PRES   REMARKS
MANITOWISH WTR CLOUDY    33  26  77 E6G18     30.01S WCI  27
ARBOR VITAE    CLOUDY    37  27  69 SE9G17    30.00F WCI  30
WOODRUFF       CLOUDY    37  27  69 SE9G17    30.00F WCI  30
RHINELANDER    PTCLDY    34  24  67 SE9       30.02F WCI  27
EAGLE RIVER    CLOUDY    31  16  52 E7G16     30.02F WCI  25
LAND O LAKES   CLOUDY    31  19  61 SE6       30.06S WCI  25
PHILLIPS       CLOUDY    36  30  80 SE12      29.97F WCI  27
TOMAHAWK       PTCLDY    33  26  75 SE5       30.02F WCI  29
MEDFORD        PTCLDY    35  29  80 SE8       30.00F WCI  28
MERRILL        PTCLDY    34  25  70 SE7       30.04F WCI  28
$$

WIZ029-030-035-036-043>047-240800-
CENTRAL WISCONSIN

CITY           SKY/WX    TMP DP  RH WIND       PRES   REMARKS
WAUSAU         CLEAR     34  27  75 E9        30.03F WCI  27
MOSINEE        CLEAR     34  30  86 E7        30.04F WCI  28
MARSHFIELD     CLEAR     37  32  82 SE13      30.01F WCI  29
STEVENS POINT  CLEAR     34  28  79 E8        30.05S WCI  27
WAUPACA        CLEAR     39  28  66 NE7       30.06F WCI  34
WAUTOMA        CLEAR     37  31  78 NE5       30.05F WCI  33
WISC RAPIDS    PTCLDY    37  30  75 E6        30.04F WCI  32
CAMP DOUGLAS   CLEAR     40  36  85 E9        30.01S WCI  34
$$

WIZ011>013-019>022-031-037>040-048>050-240800-
NORTHEAST WISCONSIN

CITY           SKY/WX    TMP DP  RH WIND       PRES   REMARKS
ANTIGO         CLEAR     31  23  72 E10       30.05F WCI  22
SHAWANO        CLEAR     37  29  72 E9        30.09F WCI  31
OCONTO         CLEAR     35  28  77 NE6       30.09F WCI  30
STURGEON BAY   CLEAR     35  28  75 E8        30.10F WCI  29
GREEN BAY      CLEAR     38  29  70 NE9       30.08F WCI  31
MANITOWOC      CLEAR     37  30  75 NE6       30.08F WCI  32
APPLETON       CLEAR     36  27  69 E12       30.05F WCI  27
CLINTONVILLE   CLEAR     36  28  75 E8        30.07F WCI  29
OSHKOSH        CLEAR     39  30  70 E10       30.05F WCI  32
$$

WIZ032>034-041-042-053>061-240800-
SOUTHWEST WISCONSIN

CITY           SKY/WX    TMP DP  RH WIND       PRES   REMARKS
LA CROSSE      CLEAR     54  42  64 E10       29.94S
SPARTA         CLEAR     45  40  85 E6        29.99S
VIROQUA        CLEAR     47  39  75 E9        29.97S
BOSCOBEL       CLEAR     45  41  86 CALM      29.98R
PRAIRIE DU CHI CLEAR     48  34  58 SE3       29.96S
PLATTEVILLE    CLEAR     53  35  51 SE8       29.98F
$$

WIZ056-057-062-063-064-067-068-240800-
SOUTH CENTRAL WISCONSIN

CITY           SKY/WX    TMP DP  RH WIND       PRES   REMARKS
REEDSBURG      CLEAR     40  38  93 E6        30.01F
BARABOO/DELLS  CLEAR     39  35  84 E7        30.02F WCI  34
LONE ROCK      CLEAR     45  39  79 E8        30.00S
MINERAL POINT  CLEAR     54  32  43 SE5       29.98F
MADISON        CLEAR     38  34  85 E7        30.02F WCI  33
MIDDLETON      CLEAR     42  38  87 E6        30.02S
WATERTOWN      CLEAR     36  36 100 CALM      30.03F
MONROE         CLEAR     46  37  71 E5        30.00S
JANESVILLE     CLEAR     37  37 100 E3        30.01F
$$

WIZ051-052-058>065-066-070>072-240800-
SOUTHEAST WISCONSIN

CITY           SKY/WX    TMP DP  RH WIND       PRES   REMARKS
MILWAUKEE      PTCLDY    40  35  83 N3        30.04F
WAUKESHA       CLEAR     34  32  93 CALM      30.04F
MILWAUKEE/TIMM CLEAR     36  32  87 NE5       30.05F WCI  32
RACINE         CLEAR     38  34  85 N8        30.06F WCI  32
KENOSHA        CLEAR     37  34  89 N3        30.04F
FOND DU LAC    CLEAR     38  29  70 NE8       30.06F WCI  32
SHEBOYGAN      CLEAR     37  31  78 NE10      30.06F WCI  30
WEST BEND      CLEAR     36  34  93 NE3       30.05S
JUNEAU         CLEAR     37  33  85 NE5       30.05S WCI  33
$$

LSZ147-162-240800-
LAKE SUPERIOR

STATION/POSITION TIME  TEMP    WIND        PRES    WAVE
                       AIR SEA DIR/SP/G            HT/PER
                 (UTC) (F)     (DEG/KT/KT) (MB)    (FT/S)
DEVILS ISLAND    0700   35      70/ 25/ 27 1019.2F
SAXON HARBOR     0630   37      50/ 11/ 13 1017.6S
$$

LMZ867-665-643>646-240800-
LAKE MICHIGAN

STATION/POSITION TIME  TEMP    WIND        PRES    WAVE
                       AIR SEA DIR/SP/G            HT/PER
                 (UTC) (F)     (DEG/KT/KT) (MB)    (FT/S)
CHAMBERS ISLAND  0640   35      40/  9/ 13 1019.3F
N MID LAKE BUOY  0650   35 37   70/ 16/ 17 1021.0F   3/ 4
NORTHPORT PIER   0640   35      60/ 13/ 17 1020.0F
KEWAUNEE LAKESHO 0654   38      50/ 14/ 19 1018.2F
SHEBOYGAN LAKESH 0700   39      10/ 17/ 19 1018.3F
PORT WASHINGTON  0640   40     350/  5/ 10 1018.6F
MILWAUKEE LAKESH 0700   40      10/  9/ 11   N/A
S MID LAKE BUOY  0650   40 40   30/  6/  6 1017.7F   3/ 6
KENOSHA   LAKESH 0700   41     360/  6/ 10 1017.3
$$

TC  - TEMPERATURE IN CELSIUS
VSB - VISIBILITY IN STATUTE MILES
WCI - WIND CHILL INDEX
HX  - HEAT INDEX





USA.gov is the U.S. government's official web portal to all federal, state and local government web resources and services.